Weather reports worldwide

Advertisment
Threave, United Kingdom (99090): temperature & dewpoint: 15.05.2019 04:00:00 - 21.05.2019 04:00:00 (BST)Threave, United Kingdom (99090): temperature -20cm & temperature -100cm: 15.05.2019 04:00:00 - 21.05.2019 04:00:00 (BST)Threave, United Kingdom (99090): precipitation: 15.05.2019 04:00:00 - 21.05.2019 04:00:00 (BST)
Date & Time tt [°C] td [°C] tt -20cm [°C] tt -100cm [°C] rr [mm]
21.05.2019 04:00:00 5,0 4,5 - - 0,0
21.05.2019 03:00:00 5,0 4,4 - - 0,0
21.05.2019 02:00:00 5,4 4,8 - - 0,0
21.05.2019 01:00:00 5,7 5,0 - - 0,0
21.05.2019 00:00:00 6,4 5,4 - - 0,0
20.05.2019 23:00:00 7,3 5,7 - - 0,0
20.05.2019 22:00:00 9,0 5,1 - - 0,0
20.05.2019 21:00:00 12,6 6,1 - - 0,0
20.05.2019 20:00:00 14,5 6,4 - - 0,0
20.05.2019 19:00:00 14,2 8,9 - - 0,0
20.05.2019 18:00:00 14,9 9,9 - - 0,0
20.05.2019 17:00:00 13,9 9,7 - - 0,6
20.05.2019 16:00:00 13,5 9,2 - - 0,2
20.05.2019 15:00:00 14,6 9,4 - - 0,2
20.05.2019 14:00:00 15,1 6,9 - - 0,0
20.05.2019 13:00:00 14,6 7,9 - - 0,0
20.05.2019 12:00:00 14,5 7,8 - - 0,0
20.05.2019 11:00:00 13,5 6,9 - - 0,0
20.05.2019 10:00:00 12,7 8,0 13,7 11,0 0,0
20.05.2019 09:00:00 11,0 7,6 - - 0,0
20.05.2019 08:00:00 9,8 8,5 - - 0,0
20.05.2019 07:00:00 8,1 7,7 - - 0,0
20.05.2019 06:00:00 7,2 6,7 - - 0,0
20.05.2019 05:00:00 7,2 6,5 - - 0,0
20.05.2019 04:00:00 7,6 6,6 - - 0,0
20.05.2019 03:00:00 8,0 7,2 - - 0,0
20.05.2019 02:00:00 8,0 7,2 - - 0,0
20.05.2019 01:00:00 7,7 6,5 - - 0,0
20.05.2019 00:00:00 9,0 7,1 - - 0,0
19.05.2019 23:00:00 9,9 7,7 - - 0,0
19.05.2019 22:00:00 10,7 8,2 - - 0,0
19.05.2019 21:00:00 12,3 8,5 - - 0,0
19.05.2019 20:00:00 12,9 9,0 - - 0,0
19.05.2019 19:00:00 13,1 9,0 - - 0,0
19.05.2019 18:00:00 13,7 8,6 - - 0,0
19.05.2019 17:00:00 14,3 9,3 - - 0,0
19.05.2019 16:00:00 13,8 9,4 - - 0,0
19.05.2019 15:00:00 12,8 9,8 - - 0,0
19.05.2019 14:00:00 12,8 9,0 - - 0,0
19.05.2019 13:00:00 12,7 9,3 - - 0,0
19.05.2019 12:00:00 13,0 8,8 - - 0,0
19.05.2019 11:00:00 12,1 8,3 - - 0,0
19.05.2019 10:00:00 12,2 8,5 13,7 11,0 0,0
19.05.2019 09:00:00 11,7 7,8 - - 0,0
19.05.2019 08:00:00 10,5 9,0 - - 0,0
19.05.2019 07:00:00 9,8 9,0 - - 0,0
19.05.2019 06:00:00 9,8 9,2 - - 0,0
19.05.2019 05:00:00 10,2 9,6 - - 0,6
19.05.2019 04:00:00 10,4 9,8 - - 0,0
19.05.2019 03:00:00 10,3 9,7 - - 0,0
19.05.2019 02:00:00 10,0 9,4 - - 0,0
19.05.2019 01:00:00 9,6 8,8 - - 0,0
19.05.2019 00:00:00 9,8 9,1 - - 0,0
18.05.2019 23:00:00 10,1 9,6 - - 0,0
18.05.2019 22:00:00 10,1 9,2 - - 0,0
18.05.2019 21:00:00 11,3 9,5 - - 0,0
18.05.2019 20:00:00 12,5 9,3 - - 0,0
18.05.2019 19:00:00 13,7 9,5 - - 0,0
18.05.2019 18:00:00 14,2 7,7 - - 0,0
18.05.2019 17:00:00 14,3 8,0 - - 0,0
18.05.2019 16:00:00 14,3 7,9 - - 0,0
18.05.2019 15:00:00 13,3 7,5 - - 0,0
18.05.2019 14:00:00 13,5 8,9 - - 0,0
18.05.2019 13:00:00 12,7 9,4 - - 0,0
18.05.2019 12:00:00 11,9 9,3 - - 0,0
18.05.2019 11:00:00 11,7 8,5 - - 0,0
18.05.2019 10:00:00 11,3 9,4 14,2 10,9 0,0
18.05.2019 09:00:00 10,3 8,9 - - 0,0
18.05.2019 08:00:00 9,8 9,0 - - 0,0
18.05.2019 07:00:00 9,4 8,7 - - 0,0
18.05.2019 06:00:00 9,2 8,5 - - 0,0
18.05.2019 05:00:00 9,2 8,3 - - 0,2
18.05.2019 04:00:00 9,3 8,2 - - 1,2
18.05.2019 03:00:00 9,2 7,9 - - 0,2
18.05.2019 02:00:00 9,1 7,3 - - 0,0
18.05.2019 01:00:00 10,2 5,0 - - 0,0
18.05.2019 00:00:00 10,9 4,0 - - 0,0
17.05.2019 23:00:00 11,6 6,5 - - 0,0
17.05.2019 22:00:00 12,4 5,6 - - 0,0
17.05.2019 21:00:00 14,7 5,5 - - 0,0
17.05.2019 20:00:00 15,9 5,3 - - 0,0
17.05.2019 19:00:00 16,6 5,1 - - 0,0
17.05.2019 18:00:00 17,4 5,3 - - 0,0
17.05.2019 17:00:00 19,2 6,0 - - 0,0
17.05.2019 16:00:00 19,3 6,1 - - 0,0
17.05.2019 15:00:00 19,2 5,7 - - 0,0
17.05.2019 14:00:00 18,2 6,3 - - 0,0
17.05.2019 13:00:00 17,5 6,0 - - 0,0
17.05.2019 12:00:00 16,9 6,4 - - 0,0
17.05.2019 11:00:00 14,3 5,7 - - 0,0
17.05.2019 10:00:00 12,4 5,8 13,9 10,7 0,0
17.05.2019 09:00:00 10,5 5,7 - - 0,0
17.05.2019 08:00:00 10,3 4,2 - - 0,0
17.05.2019 07:00:00 10,0 3,4 - - 0,0
17.05.2019 06:00:00 8,9 3,8 - - 0,0
17.05.2019 05:00:00 8,7 3,3 - - 0,0
17.05.2019 04:00:00 9,4 3,7 - - 0,0
17.05.2019 03:00:00 9,2 3,9 - - 0,0
17.05.2019 02:00:00 8,1 4,0 - - 0,0
17.05.2019 01:00:00 8,0 3,5 - - 0,0
17.05.2019 00:00:00 10,2 3,4 - - 0,0
16.05.2019 23:00:00 10,8 4,5 - - 0,0
16.05.2019 22:00:00 12,5 5,0 - - 0,0
16.05.2019 21:00:00 13,8 4,3 - - 0,0
16.05.2019 20:00:00 14,8 4,5 - - 0,0
16.05.2019 19:00:00 15,6 4,6 - - 0,0
16.05.2019 18:00:00 17,1 4,4 - - 0,0
16.05.2019 17:00:00 17,5 5,2 - - 0,0
16.05.2019 16:00:00 17,9 6,1 - - 0,0
16.05.2019 15:00:00 18,5 7,1 - - 0,0
16.05.2019 14:00:00 17,7 6,7 - - 0,0
16.05.2019 13:00:00 17,0 6,8 - - 0,0
16.05.2019 12:00:00 16,0 5,7 - - 0,0
16.05.2019 11:00:00 14,2 5,0 - - 0,0
16.05.2019 10:00:00 13,0 5,0 13,7 10,5 0,0
16.05.2019 09:00:00 12,4 5,1 - - 0,0
16.05.2019 08:00:00 11,7 7,3 - - 0,0
16.05.2019 07:00:00 10,6 8,4 - - 0,0
16.05.2019 06:00:00 10,5 8,3 - - 0,0
16.05.2019 05:00:00 10,6 8,8 - - 0,0
16.05.2019 04:00:00 11,0 9,0 - - 0,0
16.05.2019 03:00:00 11,2 9,2 - - 0,0
16.05.2019 02:00:00 10,8 9,1 - - 0,0
16.05.2019 01:00:00 12,0 8,9 - - 0,0
16.05.2019 00:00:00 12,4 8,3 - - 0,0
15.05.2019 23:00:00 13,0 8,0 - - 0,0
15.05.2019 22:00:00 14,1 6,8 - - 0,0
15.05.2019 21:00:00 14,8 9,1 - - 0,0
15.05.2019 20:00:00 17,3 8,9 - - 0,0
15.05.2019 19:00:00 17,2 8,4 - - 0,0
15.05.2019 18:00:00 17,4 7,6 - - 0,0
15.05.2019 17:00:00 17,2 6,8 - - 0,0
15.05.2019 16:00:00 20,1 9,0 - - 0,0
15.05.2019 15:00:00 19,8 7,9 - - 0,0
15.05.2019 14:00:00 19,8 9,3 - - 0,0
15.05.2019 13:00:00 18,3 7,1 - - 0,0
15.05.2019 12:00:00 17,6 7,9 - - 0,0
15.05.2019 11:00:00 17,2 8,2 - - 0,0
15.05.2019 10:00:00 17,0 9,1 12,7 10,2 0,0
15.05.2019 09:00:00 12,7 9,0 - - 0,0
15.05.2019 08:00:00 8,2 7,7 - - 0,0
15.05.2019 07:00:00 5,7 5,3 - - 0,0
15.05.2019 06:00:00 5,2 4,7 - - 0,0
15.05.2019 05:00:00 5,5 4,8 - - 0,0
15.05.2019 04:00:00 5,8 5,1 - - 0,0

tt = temperature
td = dewpoint
tt -20cm = temperature -20cm
tt -100cm = temperature -100cm
rr = precipitation

Next stations